Location: Sungai Bunut
(2.6333°N, 113.7333°E)
Time: 19:12:21
(UTC+00:00)

Vanguard 3 - Pass Details

Date: 04 December 2023
Orbit: 508 x 3239 km, 33.4° (Epoch: 24 February)

Event Time Altitude Azimuth Distance (km) Brightness Sun altitude
Rises 09:19:19 0° 224° (SW) 6,895 13.3 11.9°
Reaches altitude 10° 09:23:57 10° 220° (SW) 6,045 12.9 10.8°
Maximum altitude 09:43:14 56° 146° (SE) 3,503 10.4 6.4°
Drops below altitude 10° 09:58:48 10° 72° (ENE) 5,039 10.5 2.8°
Sets 10:02:12 0° 68° (ENE) 5,739 10.8 2.0°
